NOAA 16 DEB

Satellite information

Favourite Embed

Satellite Type and Status

DEBRISIN ORBIT

Key statistics

Satellite NOAA 16 DEB at a glance.

Uptime

9214

Days in orbit

Revolutions

≈ 14.3

Per day

Orbit

SSO

Sun Synchronous Orbit

Inclination

98.8

Latest

Satellite identification and parameters

Extended collection of information and parameters for NOAA 16 DEB.

Object identification

Identified? True

Debris? True

Object name: NOAA 16 DEB

International designator: 2000-055GH

Object number (NORAD): 41281

Object ID (CCSDS): 41281

Country: UNITED STATES OF AMERICA (US)

Current information (Y/N): Y

RCS size: SMALL

Orbital parameters

Period: 101.028 minutes

Inclination: 98.812 deg

SMA: 7185.468 km

Apoapsis: 828.791 km

Periapsis: 785.875 km

RAAN: 45.0004 deg

Eccentricy: 0.0029863

Argument of periapsis: 46.5425 deg

Mean anomaly: 313.8231 deg

Mean motion: 14.25345569 rev/day

Mean motion (dot): 0.00008147 rev/day2

B* drag term: 0.003456757 1/REarth

Two-line elements (TLE)

Creation date: Dec. 10, 2025, 10:40 a.m.

Reference frame: TEME

Reference center: EARTH

Epoch: Dec. 10, 2025, 2:44 a.m. UTC

TLE line 0: 0 NOAA 16 DEB

TLE line 1: 1 41281U 00055GH 25344.11391502 .00008147 00000-0 34568-2 0 9994

TLE line 2: 2 41281 98.8120 45.0004 0029863 46.5425 313.8231 14.25345569512512

Live tracking on map

Real-time ground track for satellite NOAA 16 DEB.

In-orbit conjunctions

A list of the most updated potential collisions computed for object NOAA 16 DEB.

Target Orbit TCA Probability of collision Miss distance Type
IRS P2 R/B SSO 2025-08-03 23:57:23 0.0006254486 110.0 (m) ROCKET BODY
FENGYUN 1C DEB SSO 2025-05-25 09:09:25 0.0004515967 65.0 (m) DEBRIS
METEOR 2-10 LEO 2024-11-30 11:11:51 0.0001368331 336.0 (m) PAYLOAD

Associated space launch

The NOAA K, L and M POES satellites begin the fifth generation of improved environmental monitoring in support of NOAA missions. The instrument payload has significant improvements and additions/deletions. The instrument changes have effected the spacecraft subsystems and data formats.

NOAA 16 DEB was lifted into orbit during the mission ‘Titan II SLV | NOAA 16’, on board a Titan II SLV space rocket.

The launch took place on Sept. 21, 2000, 10:22 a.m. from Space Launch Complex 4W.

For more information about the launch, click the button.

Launch to space Titan II SLV | NOAA 16
Titan II SLV | NOAA 16

Agency: N/A

Status: Launch Successful

Launch date: Sept. 21, 2000, 10:22 a.m. UTC

Rocket: Titan II SLV

Launch pad: Space Launch Complex 4W

Location: Vandenberg SFB, CA, USA

...

Latest news about this satellite

There are no fresh news available about this satellite. Check back as we update our databases every day.


Newsletter sign-up

Weekly statistics, charts and insights to help you stay on top of the space industry.